Location: Newark
(34.6283°N, 36.0776°E)
Time: 01:30:34
(UTC+00:00)

A-11 Canister half - Pass Details

Date: 22 September 2019
Orbit: 1527 x 1682 km, 47.3° (Epoch: 20 October)

Event Time Altitude Azimuth Distance (km) Brightness Sun altitude
Rises 01:35:34 0° 249° (WSW) 4,676 - -22.6°
Reaches altitude 10° 01:38:39 10° 253° (WSW) 3,703 - -22.0°
Exits shadow 01:42:59 31° 264° (W) 2,455 9.5 -21.2°
Maximum altitude 01:47:53 61° 333° (NNW) 1,735 9.1 -20.2°
Drops below altitude 10° 01:57:25 10° 53° (NE) 3,811 12.1 -18.3°
Sets 02:00:39 0° 57° (ENE) 4,819 12.9 -17.7°
